Time,TemperatureF,DewpointF,PressureIn,WindDirection,WindDirectionDegrees,WindSpeedMPH,WindSpeedGustMPH,Humidity,HourlyPrecipIn,Conditions,Clouds,dailyrainin,SolarRadiationWatts/m^2,SoftwareType,DateUTC
2013-03-15 00:02:00,51.0,34.0,-100.00,WSW,244,3.0,9.0,52,0.00,,,0.00,1.000000,,2013-03-15 07:02:00,
2013-03-15 00:32:00,47.0,35.0,-100.00,SW,218,3.0,6.0,63,0.00,,,0.00,1.000000,,2013-03-15 07:32:00,
2013-03-15 00:42:00,47.0,35.0,-100.00,SW,218,3.0,6.0,63,0.00,,,0.00,1.000000,,2013-03-15 07:42:00,
2013-03-15 00:52:00,47.0,35.0,-100.00,SW,218,3.0,6.0,63,0.00,,,0.00,1.000000,,2013-03-15 07:52:00,
2013-03-15 01:02:00,47.0,35.0,-100.00,SW,218,3.0,6.0,63,0.00,,,0.00,1.000000,,2013-03-15 08:02:00,
2013-03-15 01:33:00,45.0,35.0,-100.00,WSW,253,2.0,5.0,67,0.00,,,0.00,1.000000,,2013-03-15 08:33:00,
2013-03-15 01:42:00,45.0,35.0,-100.00,WSW,253,2.0,5.0,67,0.00,,,0.00,1.000000,,2013-03-15 08:42:00,
2013-03-15 01:52:00,45.0,35.0,-100.00,WSW,253,2.0,5.0,67,0.00,,,0.00,1.000000,,2013-03-15 08:52:00,
2013-03-15 02:02:00,45.0,35.0,-100.00,WSW,253,2.0,5.0,67,0.00,,,0.00,1.000000,,2013-03-15 09:02:00,
2013-03-15 02:33:00,44.0,36.0,-100.00,NNW,334,2.0,6.0,73,0.00,,,0.00,1.000000,,2013-03-15 09:33:00,
2013-03-15 02:43:00,44.0,36.0,-100.00,NNW,334,2.0,6.0,73,0.00,,,0.00,1.000000,,2013-03-15 09:43:00,
2013-03-15 02:53:00,44.0,36.0,-100.00,NNW,334,2.0,6.0,73,0.00,,,0.00,1.000000,,2013-03-15 09:53:00,
2013-03-15 03:02:00,44.0,36.0,-100.00,NNW,334,2.0,6.0,73,0.00,,,0.00,1.000000,,2013-03-15 10:02:00,
2013-03-15 03:33:00,41.0,35.0,-100.00,SSW,201,2.0,6.0,80,0.00,,,0.00,1.000000,,2013-03-15 10:33:00,
2013-03-15 03:43:00,41.0,35.0,-100.00,SSW,201,2.0,6.0,80,0.00,,,0.00,1.000000,,2013-03-15 10:43:00,
2013-03-15 03:52:00,41.0,35.0,-100.00,SSW,201,2.0,6.0,80,0.00,,,0.00,1.000000,,2013-03-15 10:52:00,
2013-03-15 04:02:00,41.0,35.0,-100.00,SSW,201,2.0,6.0,80,0.00,,,0.00,1.000000,,2013-03-15 11:02:00,
2013-03-15 04:32:00,40.0,36.0,-100.00,WNW,297,2.0,5.0,85,0.00,,,0.00,1.000000,,2013-03-15 11:32:00,
2013-03-15 04:42:00,40.0,36.0,-100.00,WNW,297,2.0,5.0,85,0.00,,,0.00,1.000000,,2013-03-15 11:42:00,
2013-03-15 04:52:00,40.0,36.0,-100.00,WNW,297,2.0,5.0,85,0.00,,,0.00,1.000000,,2013-03-15 11:52:00,
2013-03-15 05:02:00,40.0,36.0,-100.00,WNW,297,2.0,5.0,85,0.00,,,0.00,1.000000,,2013-03-15 12:02:00,
2013-03-15 05:32:00,38.0,35.0,-100.00,SW,236,0.0,4.0,90,0.00,,,0.00,1.000000,,2013-03-15 12:32:00,
2013-03-15 05:42:00,38.0,35.0,-100.00,SW,236,0.0,4.0,90,0.00,,,0.00,1.000000,,2013-03-15 12:42:00,
2013-03-15 05:52:00,38.0,35.0,-100.00,SW,236,0.0,4.0,90,0.00,,,0.00,1.000000,,2013-03-15 12:52:00,
2013-03-15 06:02:00,38.0,35.0,-100.00,SW,236,0.0,4.0,90,0.00,,,0.00,1.000000,,2013-03-15 13:02:00,
2013-03-15 06:32:00,40.0,36.0,-100.00,East,79,2.0,5.0,85,0.00,,,0.00,1.000000,,2013-03-15 13:32:00,
2013-03-15 06:42:00,40.0,36.0,-100.00,East,79,2.0,5.0,85,0.00,,,0.00,1.000000,,2013-03-15 13:42:00,
2013-03-15 06:52:00,40.0,36.0,-100.00,East,79,2.0,5.0,85,0.00,,,0.00,1.000000,,2013-03-15 13:52:00,
2013-03-15 07:02:00,40.0,36.0,-100.00,East,79,2.0,5.0,85,0.00,,,0.00,1.000000,,2013-03-15 14:02:00,
2013-03-15 07:33:00,40.0,38.0,-100.00,SSW,192,1.0,4.0,91,0.00,,,-99.99,1.000000,,2013-03-15 14:33:00,
2013-03-15 07:42:00,40.0,38.0,-100.00,SSW,192,1.0,4.0,91,0.00,,,-99.99,1.000000,,2013-03-15 14:42:00,
2013-03-15 07:52:00,40.0,38.0,-100.00,SSW,192,1.0,4.0,91,0.00,,,-99.99,1.000000,,2013-03-15 14:52:00,
2013-03-15 08:02:00,40.0,38.0,-100.00,SSW,192,1.0,4.0,91,0.00,,,-99.99,1.000000,,2013-03-15 15:02:00,
2013-03-15 08:33:00,38.0,36.0,-100.00,SSW,200,2.0,4.0,92,0.00,,,0.00,15.000000,,2013-03-15 15:33:00,
2013-03-15 08:43:00,38.0,36.0,-100.00,SSW,200,2.0,4.0,92,0.00,,,0.00,15.000000,,2013-03-15 15:43:00,
2013-03-15 08:53:00,38.0,36.0,-100.00,SSW,200,2.0,4.0,92,0.00,,,0.00,15.000000,,2013-03-15 15:53:00,
2013-03-15 09:02:00,38.0,36.0,-100.00,SSW,200,2.0,4.0,92,0.00,,,0.00,15.000000,,2013-03-15 16:02:00,
2013-03-15 09:32:00,43.0,39.0,-100.00,North,6,2.0,6.0,86,0.00,,,0.00,78.000000,,2013-03-15 16:32:00,
2013-03-15 09:42:00,43.0,39.0,-100.00,North,6,2.0,6.0,86,0.00,,,0.00,78.000000,,2013-03-15 16:42:00,
2013-03-15 09:52:00,43.0,39.0,-100.00,North,6,2.0,6.0,86,0.00,,,0.00,78.000000,,2013-03-15 16:52:00,
2013-03-15 10:01:00,43.0,39.0,-100.00,North,6,2.0,6.0,86,0.00,,,0.00,78.000000,,2013-03-15 17:01:00,
2013-03-15 10:32:00,48.0,40.0,-100.00,SSW,200,4.0,5.0,75,0.00,,,0.00,223.000000,,2013-03-15 17:32:00,
2013-03-15 10:43:00,48.0,40.0,-100.00,SSW,200,4.0,5.0,75,0.00,,,0.00,223.000000,,2013-03-15 17:43:00,
2013-03-15 10:53:00,48.0,40.0,-100.00,SSW,200,4.0,5.0,75,0.00,,,0.00,223.000000,,2013-03-15 17:53:00,
2013-03-15 11:02:00,48.0,40.0,-100.00,SSW,200,4.0,5.0,75,0.00,,,0.00,223.000000,,2013-03-15 18:02:00,
2013-03-15 11:32:00,55.0,44.0,-100.00,ENE,72,3.0,5.0,66,0.00,,,0.00,371.000000,,2013-03-15 18:32:00,
2013-03-15 11:42:00,55.0,44.0,-100.00,ENE,72,3.0,5.0,66,0.00,,,0.00,371.000000,,2013-03-15 18:42:00,
2013-03-15 11:52:00,55.0,44.0,-100.00,ENE,72,3.0,5.0,66,0.00,,,0.00,371.000000,,2013-03-15 18:52:00,
2013-03-15 12:02:00,55.0,44.0,-100.00,ENE,72,3.0,5.0,66,0.00,,,0.00,371.000000,,2013-03-15 19:02:00,
2013-03-15 12:32:00,59.0,41.0,-100.00,NNW,347,2.0,6.0,51,0.00,,,-99.99,537.000000,,2013-03-15 19:32:00,
2013-03-15 12:42:00,59.0,41.0,-100.00,NNW,347,2.0,6.0,51,0.00,,,-99.99,537.000000,,2013-03-15 19:42:00,
2013-03-15 12:52:00,59.0,41.0,-100.00,NNW,347,2.0,6.0,51,0.00,,,-99.99,537.000000,,2013-03-15 19:52:00,
2013-03-15 13:02:00,59.0,41.0,-100.00,NNW,347,2.0,6.0,51,0.00,,,-99.99,537.000000,,2013-03-15 20:02:00,
2013-03-15 13:32:00,60.0,38.0,-100.00,NNW,329,6.0,8.0,44,0.00,,,0.00,525.000000,,2013-03-15 20:32:00,
2013-03-15 13:42:00,60.0,38.0,-100.00,NNW,329,6.0,8.0,44,0.00,,,0.00,525.000000,,2013-03-15 20:42:00,
2013-03-15 13:52:00,60.0,38.0,-100.00,NNW,329,6.0,8.0,44,0.00,,,0.00,525.000000,,2013-03-15 20:52:00,
2013-03-15 14:02:00,60.0,38.0,-100.00,NNW,329,6.0,8.0,44,0.00,,,0.00,525.000000,,2013-03-15 21:02:00,
2013-03-15 14:33:00,61.0,37.0,-100.00,NNE,23,5.0,9.0,41,0.00,,,0.00,452.000000,,2013-03-15 21:33:00,
2013-03-15 14:43:00,61.0,37.0,-100.00,NNE,23,5.0,9.0,41,0.00,,,0.00,452.000000,,2013-03-15 21:43:00,
2013-03-15 14:52:00,61.0,37.0,-100.00,NNE,23,5.0,9.0,41,0.00,,,0.00,452.000000,,2013-03-15 21:52:00,
2013-03-15 15:33:00,63.0,38.0,-100.00,ENE,61,3.0,9.0,40,0.00,,,0.00,353.000000,,2013-03-15 22:33:00,
2013-03-15 15:42:00,63.0,38.0,-100.00,ENE,61,3.0,9.0,40,0.00,,,0.00,353.000000,,2013-03-15 22:42:00,
2013-03-15 15:52:00,63.0,38.0,-100.00,ENE,61,3.0,9.0,40,0.00,,,0.00,353.000000,,2013-03-15 22:52:00,
2013-03-15 16:02:00,63.0,38.0,-100.00,ENE,61,3.0,9.0,40,0.00,,,0.00,353.000000,,2013-03-15 23:02:00,
2013-03-15 16:32:00,63.0,38.0,-100.00,NNE,15,4.0,7.0,39,0.00,,,0.00,310.000000,,2013-03-15 23:32:00,
2013-03-15 16:42:00,63.0,38.0,-100.00,NNE,15,4.0,7.0,39,0.00,,,0.00,310.000000,,2013-03-15 23:42:00,
2013-03-15 16:53:00,63.0,38.0,-100.00,NNE,15,4.0,7.0,39,0.00,,,0.00,310.000000,,2013-03-15 23:53:00,
2013-03-15 17:02:00,63.0,38.0,-100.00,NNE,15,4.0,7.0,39,0.00,,,0.00,310.000000,,2013-03-16 00:02:00,
2013-03-15 17:32:00,62.0,34.0,-100.00,North,355,7.0,11.0,35,0.00,,,0.00,175.000000,,2013-03-16 00:32:00,
2013-03-15 17:42:00,62.0,34.0,-100.00,North,355,7.0,11.0,35,0.00,,,0.00,175.000000,,2013-03-16 00:42:00,
2013-03-15 17:52:00,62.0,34.0,-100.00,North,355,7.0,11.0,35,0.00,,,0.00,175.000000,,2013-03-16 00:52:00,
2013-03-15 18:02:00,62.0,34.0,-100.00,North,355,7.0,11.0,35,0.00,,,0.00,175.000000,,2013-03-16 01:02:00,
2013-03-15 18:32:00,60.0,34.0,-100.00,NE,35,5.0,10.0,37,0.00,,,0.00,78.000000,,2013-03-16 01:32:00,
2013-03-15 18:42:00,60.0,34.0,-100.00,NE,35,5.0,10.0,37,0.00,,,0.00,78.000000,,2013-03-16 01:42:00,
2013-03-15 18:52:00,60.0,34.0,-100.00,NE,35,5.0,10.0,37,0.00,,,0.00,78.000000,,2013-03-16 01:52:00,
2013-03-15 19:02:00,60.0,34.0,-100.00,NE,35,5.0,10.0,37,0.00,,,0.00,78.000000,,2013-03-16 02:02:00,
2013-03-15 19:33:00,57.0,34.0,-100.00,North,5,2.0,9.0,42,0.00,,,0.00,50.000000,,2013-03-16 02:33:00,
2013-03-15 19:43:00,57.0,34.0,-100.00,North,5,2.0,9.0,42,0.00,,,0.00,50.000000,,2013-03-16 02:43:00,
2013-03-15 19:52:00,57.0,34.0,-100.00,North,5,2.0,9.0,42,0.00,,,0.00,50.000000,,2013-03-16 02:52:00,
2013-03-15 20:02:00,57.0,34.0,-100.00,North,5,2.0,9.0,42,0.00,,,0.00,50.000000,,2013-03-16 03:02:00,
2013-03-15 20:33:00,54.0,37.0,-100.00,East,101,3.0,4.0,53,0.00,,,0.00,1.000000,,2013-03-16 03:33:00,
2013-03-15 20:43:00,54.0,37.0,-100.00,East,101,3.0,4.0,53,0.00,,,0.00,1.000000,,2013-03-16 03:43:00,
2013-03-15 20:53:00,54.0,37.0,-100.00,East,101,3.0,4.0,53,0.00,,,0.00,1.000000,,2013-03-16 03:53:00,
2013-03-15 21:02:00,54.0,37.0,-100.00,East,101,3.0,4.0,53,0.00,,,0.00,1.000000,,2013-03-16 04:02:00,
2013-03-15 21:33:00,51.0,39.0,-100.00,WNW,289,5.0,8.0,64,0.00,,,0.00,1.000000,,2013-03-16 04:33:00,
2013-03-15 21:43:00,51.0,39.0,-100.00,WNW,289,5.0,8.0,64,0.00,,,0.00,1.000000,,2013-03-16 04:43:00,
2013-03-15 21:53:00,51.0,39.0,-100.00,WNW,289,5.0,8.0,64,0.00,,,0.00,1.000000,,2013-03-16 04:53:00,
2013-03-15 22:02:00,51.0,39.0,-100.00,WNW,289,5.0,8.0,64,0.00,,,0.00,1.000000,,2013-03-16 05:02:00,
2013-03-15 22:32:00,47.0,35.0,-100.00,SW,216,3.0,6.0,64,0.00,,,0.00,1.000000,,2013-03-16 05:32:00,
2013-03-15 22:42:00,47.0,35.0,-100.00,SW,216,3.0,6.0,64,0.00,,,0.00,1.000000,,2013-03-16 05:42:00,
2013-03-15 22:52:00,47.0,35.0,-100.00,SW,216,3.0,6.0,64,0.00,,,0.00,1.000000,,2013-03-16 05:52:00,
2013-03-15 23:02:00,47.0,35.0,-100.00,SW,216,3.0,6.0,64,0.00,,,0.00,1.000000,,2013-03-16 06:02:00,
2013-03-15 23:32:00,44.0,38.0,-100.00,WSW,248,3.0,5.0,79,0.00,,,0.00,1.000000,,2013-03-16 06:32:00,
2013-03-15 23:42:00,44.0,38.0,-100.00,WSW,248,3.0,5.0,79,0.00,,,0.00,1.000000,,2013-03-16 06:42:00,
2013-03-15 23:52:00,44.0,38.0,-100.00,WSW,248,3.0,5.0,79,0.00,,,0.00,1.000000,,2013-03-16 06:52:00,